| time (UTC) | temp F | wind direction | speed MPH | gust MPH | rain 1hr in | rain 24hr in | rain mn in | humidity % | barometer mb |
| 20260504141124 | 49 | 66 | 1.0 | 1.0 | 0.00 | 0.00 | 0.00 | 60 | 1012.0 |
| 20260504140621 | 48 | 95 | 0.0 | 1.0 | 0.00 | 0.00 | 0.00 | 60 | 1011.9 |
| 20260504140117 | 46 | 11 | 2.0 | 2.0 | 0.00 | 0.00 | 0.00 | 64 | 1011.9 |
| 20260504130545 | 34 | 193 | 0.0 | 1.0 | 0.00 | 0.00 | 0.00 | 83 | 1011.4 |
| 20260504110432 | 33 | 205 | 0.0 | 0.0 | 0.00 | 0.00 | 0.00 | 80 | 1010.7 |
| 20260504100349 | 33 | 184 | 0.0 | 1.0 | 0.00 | 0.00 | 0.00 | 81 | 1010.8 |
| 20260504081742 | 37 | 139 | 0.0 | 0.0 | 0.00 | 0.00 | 0.00 | 79 | 1011.2 |
| 20260504081239 | 37 | 113 | 0.0 | 0.0 | 0.00 | 0.00 | 0.00 | 78 | 1011.2 |
| 20260504080735 | 37 | 74 | 0.0 | 0.0 | 0.00 | 0.00 | 0.00 | 76 | 1011.2 |
| 20260504080232 | 37 | 273 | 0.0 | 0.0 | 0.00 | 0.00 | 0.00 | 75 | 1011.2 |
| 20260504070159 | 40 | 303 | 0.0 | 1.0 | 0.00 | 0.00 | 0.00 | 68 | 1011.8 |
| 20260504060120 | 45 | 202 | 0.0 | 1.0 | 0.00 | 0.00 | 0.00 | 53 | 1012.2 |
| 20260504050548 | 45 | 171 | 0.0 | 1.0 | 0.00 | 0.00 | 0.00 | 58 | 1012.2 |
| 20260504045542 | 47 | 73 | 0.0 | 1.0 | 0.00 | 0.00 | 0.00 | 56 | 1012.7 |
| 20260504045037 | 47 | 78 | 0.0 | 0.0 | 0.00 | 0.00 | 0.00 | 54 | 1012.6 |
| 20260504044535 | 48 | 78 | 0.0 | 0.0 | 0.00 | 0.00 | 0.00 | 51 | 1012.5 |
| 20260504044031 | 49 | 78 | 0.0 | 0.0 | 0.00 | 0.00 | 0.00 | 48 | 1012.8 |
| 20260504043528 | 50 | 23 | 0.0 | 0.0 | 0.00 | 0.00 | 0.00 | 48 | 1012.7 |
| 20260504043026 | 51 | 302 | 1.0 | 3.0 | 0.00 | 0.00 | 0.00 | 45 | 1012.7 |
| 20260504042523 | 50 | 296 | 2.0 | 3.0 | 0.00 | 0.00 | 0.00 | 45 | 1012.8 |
| 20260504042020 | 50 | 254 | 1.0 | 1.0 | 0.00 | 0.00 | 0.00 | 45 | 1012.6 |
| 20260504041515 | 50 | 254 | 0.0 | 2.0 | 0.00 | 0.00 | 0.00 | 46 | 1012.7 |
| 20260504041011 | 50 | 242 | 1.0 | 1.0 | 0.00 | 0.00 | 0.00 | 47 | 1012.8 |
| 20260504040509 | 51 | 216 | 1.0 | 1.0 | 0.00 | 0.00 | 0.00 | 46 | 1012.6 |
| 20260504040006 | 51 | 238 | 1.0 | 1.0 | 0.00 | 0.00 | 0.00 | 45 | 1012.7 |
| 20260504035503 | 51 | 264 | 1.0 | 2.0 | 0.00 | 0.00 | 0.00 | 46 | 1012.3 |
| 20260504034959 | 51 | 185 | 0.0 | 1.0 | 0.00 | 0.00 | 0.00 | 47 | 1012.3 |
| 20260504034457 | 51 | 214 | 1.0 | 2.0 | 0.00 | 0.00 | 0.00 | 45 | 1012.5 |
| 20260504033954 | 51 | 245 | 1.0 | 1.0 | 0.00 | 0.00 | 0.00 | 46 | 1012.5 |
| 20260504033451 | 52 | 233 | 2.0 | 2.0 | 0.00 | 0.00 | 0.00 | 45 | 1012.1 |
| 20260504032949 | 54 | 218 | 1.0 | 2.0 | 0.00 | 0.00 | 0.00 | 41 | 1012.3 |
| 20260504032445 | 56 | 246 | 1.0 | 3.0 | 0.00 | 0.00 | 0.00 | 38 | 1012.0 |
| 20260504031942 | 57 | 169 | 1.0 | 1.0 | 0.00 | 0.00 | 0.00 | 36 | 1012.1 |
| 20260504031439 | 56 | 150 | 0.0 | 1.0 | 0.00 | 0.00 | 0.00 | 33 | 1011.8 |
| 20260504030936 | 55 | 329 | 1.0 | 1.0 | 0.00 | 0.00 | 0.00 | 37 | 1011.9 |
| 20260504030433 | 58 | 287 | 2.0 | 2.0 | 0.00 | 0.00 | 0.00 | 38 | 1012.1 |
| 20260504025928 | 59 | 192 | 2.0 | 3.0 | 0.00 | 0.00 | 0.00 | 32 | 1011.9 |
| 20260504025425 | 60 | 57 | 0.0 | 1.0 | 0.00 | 0.00 | 0.00 | 30 | 1011.5 |
| 20260504024923 | 61 | 22 | 2.0 | 3.0 | 0.00 | 0.00 | 0.00 | 30 | 1011.4 |
| 20260504024420 | 60 | 6 | 5.0 | 6.0 | 0.00 | 0.00 | 0.00 | 29 | 1011.4 |
| 20260504023917 | 61 | 14 | 3.0 | 6.0 | 0.00 | 0.00 | 0.00 | 29 | 1011.3 |
| 20260504023413 | 62 | 25 | 3.0 | 8.0 | 0.00 | 0.00 | 0.00 | 28 | 1011.3 |
| 20260504022908 | 62 | 17 | 4.0 | 7.0 | 0.00 | 0.00 | 0.00 | 27 | 1011.2 |
| 20260504022405 | 62 | 31 | 5.0 | 8.0 | 0.00 | 0.00 | 0.00 | 26 | 1011.1 |
| 20260504021902 | 62 | 51 | 4.0 | 7.0 | 0.00 | 0.00 | 0.00 | 27 | 1010.8 |
| 20260504021359 | 62 | 30 | 1.0 | 2.0 | 0.00 | 0.00 | 0.00 | 26 | 1010.9 |
| 20260504020856 | 64 | 295 | 2.0 | 2.0 | 0.00 | 0.00 | 0.00 | 24 | 1010.9 |
| 20260504020353 | 66 | 354 | 1.0 | 1.0 | 0.00 | 0.00 | 0.00 | 22 | 1010.8 |
| 20260504015849 | 67 | 68 | 0.0 | 1.0 | 0.00 | 0.00 | 0.00 | 20 | 1010.7 |
| 20260504015345 | 68 | 31 | 1.0 | 3.0 | 0.00 | 0.00 | 0.00 | 19 | 1010.8 |
| 20260504014841 | 67 | 69 | 1.0 | 3.0 | 0.00 | 0.00 | 0.00 | 20 | 1010.6 |
| 20260504014337 | 68 | 1 | 4.0 | 4.0 | 0.00 | 0.00 | 0.00 | 18 | 1010.3 |
| 20260504013836 | 69 | 15 | 3.0 | 6.0 | 0.00 | 0.00 | 0.00 | 19 | 1010.6 |
| 20260504013333 | 69 | 10 | 2.0 | 3.0 | 0.00 | 0.00 | 0.00 | 16 | 1010.7 |
| 20260504012830 | 68 | 357 | 4.0 | 7.0 | 0.00 | 0.00 | 0.00 | 15 | 1010.7 |
| 20260504012327 | 68 | 21 | 2.0 | 7.0 | 0.00 | 0.00 | 0.00 | 16 | 1010.6 |
| 20260504011825 | 68 | 3 | 2.0 | 3.0 | 0.00 | 0.00 | 0.00 | 18 | 1010.8 |
| 20260504011321 | 69 | 51 | 1.0 | 2.0 | 0.00 | 0.00 | 0.00 | 19 | 1010.9 |
| 20260504010817 | 70 | 321 | 1.0 | 2.0 | 0.00 | 0.00 | 0.00 | 18 | 1010.9 |
| 20260504010313 | 71 | 349 | 1.0 | 4.0 | 0.00 | 0.00 | 0.00 | 15 | 1010.8 |
| 20260504005809 | 72 | 0 | 2.0 | 4.0 | 0.00 | 0.00 | 0.00 | 15 | 1010.7 |
| 20260504005306 | 72 | 3 | 5.0 | 7.0 | 0.00 | 0.00 | 0.00 | 15 | 1010.8 |
| 20260504004804 | 73 | 5 | 3.0 | 4.0 | 0.00 | 0.00 | 0.00 | 14 | 1010.9 |
| 20260504004301 | 72 | 358 | 3.0 | 4.0 | 0.00 | 0.00 | 0.00 | 17 | 1011.1 |
| 20260504003757 | 72 | 6 | 3.0 | 7.0 | 0.00 | 0.00 | 0.00 | 15 | 1010.9 |
| 20260504003255 | 71 | 7 | 2.0 | 4.0 | 0.00 | 0.00 | 0.00 | 15 | 1010.8 |
| 20260504002751 | 72 | 349 | 3.0 | 6.0 | 0.00 | 0.00 | 0.00 | 15 | 1011.1 |
| 20260504002248 | 72 | 0 | 5.0 | 7.0 | 0.00 | 0.00 | 0.00 | 15 | 1011.1 |
| 20260504001746 | 71 | 359 | 3.0 | 6.0 | 0.00 | 0.00 | 0.00 | 16 | 1011.1 |
| 20260504001243 | 71 | 10 | 5.0 | 6.0 | 0.00 | 0.00 | 0.00 | 15 | 1010.9 |
| 20260504000739 | 72 | 11 | 1.0 | 4.0 | 0.00 | 0.00 | 0.00 | 16 | 1011.1 |
| 20260504000236 | 71 | 343 | 4.0 | 6.0 | 0.00 | 0.00 | 0.00 | 15 | 1011.1 |
| 20260503235735 | 73 | 27 | 5.0 | 9.0 | 0.00 | 0.00 | 0.00 | 16 | 1011.2 |
| 20260503235231 | 73 | 357 | 2.0 | 4.0 | 0.00 | 0.00 | 0.00 | 14 | 1011.1 |
| 20260503234729 | 74 | 11 | 5.0 | 7.0 | 0.00 | 0.00 | 0.00 | 16 | 1011.2 |
| 20260503234227 | 74 | 12 | 5.0 | 8.0 | 0.00 | 0.00 | 0.00 | 16 | 1011.1 |
| 20260503233724 | 73 | 9 | 10.0 | 14.0 | 0.00 | 0.00 | 0.00 | 14 | 1010.9 |
| 20260503233219 | 71 | 297 | 4.0 | 6.0 | 0.00 | 0.00 | 0.00 | 15 | 1011.3 |
| 20260503232717 | 71 | 245 | 4.0 | 6.0 | 0.00 | 0.00 | 0.00 | 14 | 1011.4 |
| 20260503232214 | 71 | 353 | 2.0 | 3.0 | 0.00 | 0.00 | 0.00 | 14 | 1011.4 |
| 20260503231712 | 71 | 349 | 4.0 | 6.0 | 0.00 | 0.00 | 0.00 | 13 | 1011.4 |
| 20260503231208 | 72 | 328 | 3.0 | 6.0 | 0.00 | 0.00 | 0.00 | 12 | 1011.5 |
| 20260503230705 | 73 | 308 | 4.0 | 8.0 | 0.00 | 0.00 | 0.00 | 12 | 1011.4 |
| 20260503230202 | 74 | 259 | 5.0 | 10.0 | 0.00 | 0.00 | 0.00 | 13 | 1011.4 |
| 20260503225659 | 77 | 270 | 6.0 | 7.0 | 0.00 | 0.00 | 0.00 | 12 | 1011.3 |
| 20260503225159 | 76 | 289 | 4.0 | 10.0 | 0.00 | 0.00 | 0.00 | 13 | 1011.4 |
| 20260503224657 | 76 | 259 | 3.0 | 6.0 | 0.00 | 0.00 | 0.00 | 12 | 1011.5 |
| 20260503224155 | 76 | 301 | 5.0 | 10.0 | 0.00 | 0.00 | 0.00 | 13 | 1011.4 |
| 20260503223652 | 77 | 51 | 4.0 | 8.0 | 0.00 | 0.00 | 0.00 | 14 | 1011.4 |
| 20260503223149 | 76 | 177 | 1.0 | 2.0 | 0.00 | 0.00 | 0.00 | 14 | 1011.4 |
| 20260503222646 | 76 | 292 | 2.0 | 4.0 | 0.00 | 0.00 | 0.00 | 14 | 1011.4 |
| 20260503222143 | 74 | 145 | 1.0 | 1.0 | 0.00 | 0.00 | 0.00 | 17 | 1011.5 |
| 20260503221642 | 74 | 66 | 0.0 | 2.0 | 0.00 | 0.00 | 0.00 | 14 | 1011.9 |
| 20260503221139 | 75 | 196 | 4.0 | 4.0 | 0.00 | 0.00 | 0.00 | 19 | 1011.8 |
| 20260503220635 | 76 | 234 | 1.0 | 6.0 | 0.00 | 0.00 | 0.00 | 15 | 1011.9 |
| 20260503220132 | 75 | 217 | 2.0 | 6.0 | 0.00 | 0.00 | 0.00 | 15 | 1012.0 |
| 20260503215629 | 75 | 323 | 3.0 | 4.0 | 0.00 | 0.00 | 0.00 | 15 | 1012.0 |
| 20260503215126 | 72 | 205 | 1.0 | 4.0 | 0.00 | 0.00 | 0.00 | 21 | 1012.5 |
| 20260503214625 | 73 | 195 | 6.0 | 8.0 | 0.00 | 0.00 | 0.00 | 17 | 1012.5 |
| 20260503214120 | 75 | 187 | 2.0 | 3.0 | 0.00 | 0.00 | 0.00 | 14 | 1012.6 |
| 20260503213620 | 73 | 249 | 1.0 | 3.0 | 0.00 | 0.00 | 0.00 | 15 | 1012.5 |
| 20260503213116 | 74 | 206 | 8.0 | 11.0 | 0.00 | 0.00 | 0.00 | 15 | 1012.7 |
| 20260503212613 | 76 | 185 | 5.0 | 9.0 | 0.00 | 0.00 | 0.00 | 16 | 1012.8 |
| 20260503212111 | 78 | 259 | 4.0 | 7.0 | 0.00 | 0.00 | 0.00 | 14 | 1012.7 |
| 20260503211608 | 77 | 122 | 1.0 | 2.0 | 0.00 | 0.00 | 0.00 | 15 | 1013.0 |
| 20260503211103 | 76 | 182 | 1.0 | 1.0 | 0.00 | 0.00 | 0.00 | 18 | 1013.0 |
| 20260503210600 | 75 | 148 | 1.0 | 3.0 | 0.00 | 0.00 | 0.00 | 21 | 1013.3 |
| 20260503210056 | 76 | 171 | 1.0 | 3.0 | 0.00 | 0.00 | 0.00 | 18 | 1013.3 |
| 20260503205553 | 76 | 358 | 2.0 | 3.0 | 0.00 | 0.00 | 0.00 | 21 | 1013.2 |
| 20260503205049 | 75 | 2 | 1.0 | 4.0 | 0.00 | 0.00 | 0.00 | 15 | 1013.2 |
| 20260503204546 | 75 | 108 | 1.0 | 4.0 | 0.00 | 0.00 | 0.00 | 22 | 1013.3 |
| 20260503204043 | 77 | 26 | 4.0 | 6.0 | 0.00 | 0.00 | 0.00 | 17 | 1013.5 |
| 20260503203540 | 74 | 233 | 1.0 | 4.0 | 0.00 | 0.00 | 0.00 | 24 | 1013.5 |
| 20260503203037 | 74 | 177 | 1.0 | 2.0 | 0.00 | 0.00 | 0.00 | 18 | 1013.7 |
| 20260503202535 | 74 | 156 | 3.0 | 7.0 | 0.00 | 0.00 | 0.00 | 20 | 1013.9 |
| 20260503202033 | 75 | 348 | 1.0 | 4.0 | 0.00 | 0.00 | 0.00 | 15 | 1014.0 |
| 20260503201531 | 77 | 15 | 1.0 | 2.0 | 0.00 | 0.00 | 0.00 | 17 | 1014.2 |
| 20260503201028 | 76 | 211 | 1.0 | 2.0 | 0.00 | 0.00 | 0.00 | 19 | 1014.1 |
| 20260503200524 | 75 | 189 | 0.0 | 1.0 | 0.00 | 0.00 | 0.00 | 18 | 1014.2 |
| 20260503200021 | 74 | 105 | 2.0 | 3.0 | 0.00 | 0.00 | 0.00 | 22 | 1014.1 |
| 20260503195518 | 73 | 330 | 1.0 | 2.0 | 0.00 | 0.00 | 0.00 | 21 | 1014.2 |
| 20260503195015 | 73 | 29 | 4.0 | 6.0 | 0.00 | 0.00 | 0.00 | 21 | 1014.2 |
| 20260503194512 | 72 | 2 | 3.0 | 4.0 | 0.00 | 0.00 | 0.00 | 19 | 1014.3 |
| 20260503194012 | 71 | 235 | 2.0 | 4.0 | 0.00 | 0.00 | 0.00 | 18 | 1014.4 |
| 20260503193508 | 72 | 205 | 4.0 | 4.0 | 0.00 | 0.00 | 0.00 | 18 | 1014.7 |
| 20260503193004 | 73 | 6 | 4.0 | 4.0 | 0.00 | 0.00 | 0.00 | 21 | 1014.6 |
| 20260503192500 | 72 | 166 | 0.0 | 1.0 | 0.00 | 0.00 | 0.00 | 17 | 1014.7 |
| 20260503191955 | 70 | 158 | 1.0 | 1.0 | 0.00 | 0.00 | 0.00 | 23 | 1014.7 |
| 20260503191453 | 71 | 19 | 5.0 | 6.0 | 0.00 | 0.00 | 0.00 | 20 | 1014.8 |
| 20260503190949 | 71 | 27 | 1.0 | 4.0 | 0.00 | 0.00 | 0.00 | 20 | 1014.9 |
| 20260503190447 | 71 | 349 | 3.0 | 8.0 | 0.00 | 0.00 | 0.00 | 22 | 1014.9 |
| 20260503185944 | 72 | 27 | 3.0 | 6.0 | 0.00 | 0.00 | 0.00 | 20 | 1015.2 |
| 20260503185440 | 71 | 31 | 5.0 | 8.0 | 0.00 | 0.00 | 0.00 | 24 | 1015.3 |
| 20260503184940 | 71 | 342 | 1.0 | 2.0 | 0.00 | 0.00 | 0.00 | 25 | 1015.4 |
| 20260503184436 | 69 | 129 | 1.0 | 2.0 | 0.00 | 0.00 | 0.00 | 25 | 1015.6 |
| 20260503183933 | 70 | 124 | 0.0 | 6.0 | 0.00 | 0.00 | 0.00 | 21 | 1015.6 |
| 20260503183429 | 69 | 159 | 1.0 | 2.0 | 0.00 | 0.00 | 0.00 | 20 | 1015.7 |
| 20260503182926 | 68 | 206 | 1.0 | 2.0 | 0.00 | 0.00 | 0.00 | 25 | 1015.9 |
| 20260503182425 | 68 | 250 | 2.0 | 3.0 | 0.00 | 0.00 | 0.00 | 27 | 1015.9 |
| 20260503181922 | 68 | 202 | 1.0 | 3.0 | 0.00 | 0.00 | 0.00 | 21 | 1016.2 |
| 20260503181419 | 68 | 287 | 2.0 | 4.0 | 0.00 | 0.00 | 0.00 | 23 | 1016.1 |
| 20260503180915 | 67 | 350 | 5.0 | 6.0 | 0.00 | 0.00 | 0.00 | 27 | 1015.9 |
| 20260503180414 | 68 | 208 | 1.0 | 3.0 | 0.00 | 0.00 | 0.00 | 22 | 1016.2 |
| 20260503175910 | 68 | 11 | 6.0 | 8.0 | 0.00 | 0.00 | 0.00 | 26 | 1016.3 |
| 20260503175409 | 68 | 120 | 0.0 | 2.0 | 0.00 | 0.00 | 0.00 | 24 | 1016.4 |
| 20260503174904 | 67 | 47 | 3.0 | 4.0 | 0.00 | 0.00 | 0.00 | 28 | 1016.4 |
| 20260503174403 | 68 | 27 | 1.0 | 6.0 | 0.00 | 0.00 | 0.00 | 28 | 1016.4 |
| 20260503173902 | 67 | 174 | 1.0 | 1.0 | 0.00 | 0.00 | 0.00 | 24 | 1016.3 |
| 20260503173359 | 67 | 111 | 0.0 | 2.0 | 0.00 | 0.00 | 0.00 | 26 | 1016.4 |
| 20260503172856 | 67 | 157 | 1.0 | 2.0 | 0.00 | 0.00 | 0.00 | 28 | 1016.7 |
| 20260503172353 | 67 | 185 | 0.0 | 2.0 | 0.00 | 0.00 | 0.00 | 27 | 1016.8 |
| 20260503171849 | 68 | 90 | 0.0 | 2.0 | 0.00 | 0.00 | 0.00 | 28 | 1016.9 |
| 20260503171346 | 66 | 202 | 1.0 | 2.0 | 0.00 | 0.00 | 0.00 | 27 | 1017.0 |
| 20260503170844 | 66 | 13 | 1.0 | 2.0 | 0.00 | 0.00 | 0.00 | 25 | 1017.3 |
| 20260503170340 | 66 | 224 | 2.0 | 4.0 | 0.00 | 0.00 | 0.00 | 30 | 1017.0 |
| 20260503150732 | 56 | 141 | 0.0 | 2.0 | 0.00 | 0.00 | 0.00 | 37 | 1018.1 |
| 20260503150228 | 55 | 62 | 1.0 | 2.0 | 0.00 | 0.00 | 0.00 | 38 | 1018.3 |